Time,TemperatureF,DewpointF,PressureIn,WindDirection,WindDirectionDegrees,WindSpeedMPH,WindSpeedGustMPH,Humidity,HourlyPrecipIn,Conditions,Clouds,dailyrainin,SoftwareType,DateUTC
2013-02-07 00:00:00,15.4,8.3,29.23,WSW,247,0.0,0.0,73,0.00,,,0.00,WUHU216WMR100,2013-02-07 05:00:00,
2013-02-07 00:05:00,15.1,8.0,29.26,NNW,337,0.0,1.3,73,0.00,,,0.00,WUHU216WMR100,2013-02-07 05:05:00,
2013-02-07 00:10:00,14.9,8.1,29.26,North,0,0.0,1.3,74,0.00,,,0.00,WUHU216WMR100,2013-02-07 05:10:00,
2013-02-07 00:15:00,14.9,8.1,29.26,North,0,0.0,0.0,74,0.00,,,0.00,WUHU216WMR100,2013-02-07 05:15:00,
2013-02-07 00:20:00,14.5,7.8,29.23,North,0,0.0,0.0,74,0.00,,,0.00,WUHU216WMR100,2013-02-07 05:20:00,
2013-02-07 00:25:00,14.5,7.8,29.23,North,0,0.0,0.0,74,0.00,,,0.00,WUHU216WMR100,2013-02-07 05:25:00,
2013-02-07 00:30:00,14.5,7.8,29.23,North,0,0.0,0.0,74,0.00,,,0.00,WUHU216WMR100,2013-02-07 05:30:00,
2013-02-07 00:35:00,14.4,7.7,29.23,North,0,0.0,0.0,74,0.00,,,0.00,WUHU216WMR100,2013-02-07 05:35:00,
2013-02-07 00:40:00,14.0,7.3,29.23,North,0,0.0,0.0,74,0.00,,,0.00,WUHU216WMR100,2013-02-07 05:40:00,
2013-02-07 00:45:00,13.6,6.9,29.23,North,0,0.0,0.0,74,0.00,,,0.00,WUHU216WMR100,2013-02-07 05:45:00,
2013-02-07 00:50:00,13.8,7.1,29.23,North,0,0.0,0.0,74,0.00,,,0.00,WUHU216WMR100,2013-02-07 05:50:00,
2013-02-07 00:55:00,14.2,7.8,29.23,North,0,0.0,0.0,75,0.00,,,0.00,WUHU216WMR100,2013-02-07 05:55:00,
2013-02-07 01:00:00,14.0,7.8,29.23,NE,45,0.0,0.0,76,0.00,,,0.00,WUHU216WMR100,2013-02-07 06:00:00,
2013-02-07 01:05:00,14.5,8.0,29.23,ENE,67,0.0,0.0,75,0.00,,,0.00,WUHU216WMR100,2013-02-07 06:05:00,
2013-02-07 01:10:00,14.4,7.9,29.23,ENE,67,1.1,2.9,75,0.00,,,0.00,WUHU216WMR100,2013-02-07 06:10:00,
2013-02-07 01:15:00,14.9,9.0,29.23,ENE,67,0.9,3.1,77,0.00,,,0.00,WUHU216WMR100,2013-02-07 06:15:00,
2013-02-07 01:20:00,15.1,9.2,29.21,SSW,202,0.0,3.1,77,0.00,,,0.00,WUHU216WMR100,2013-02-07 06:20:00,
2013-02-07 01:25:00,14.9,9.0,29.21,NNW,337,0.0,2.7,77,0.00,,,0.00,WUHU216WMR100,2013-02-07 06:25:00,
2013-02-07 01:30:00,14.7,8.5,29.21,West,270,0.9,2.7,76,0.00,,,0.00,WUHU216WMR100,2013-02-07 06:30:00,
2013-02-07 01:35:00,14.5,8.6,29.21,WSW,247,0.0,2.0,77,0.00,,,0.00,WUHU216WMR100,2013-02-07 06:35:00,
2013-02-07 01:40:00,14.5,8.6,29.21,NW,315,1.3,2.2,77,0.00,,,0.00,WUHU216WMR100,2013-02-07 06:40:00,
2013-02-07 01:45:00,14.5,8.6,29.21,NNW,337,0.0,2.2,77,0.00,,,0.00,WUHU216WMR100,2013-02-07 06:45:00,
2013-02-07 01:50:00,14.7,9.1,29.23,NNW,337,0.0,1.3,78,0.00,,,0.00,WUHU216WMR100,2013-02-07 06:50:00,
2013-02-07 01:55:00,14.4,8.5,29.23,North,0,0.0,0.0,77,0.00,,,0.00,WUHU216WMR100,2013-02-07 06:55:00,
2013-02-07 02:00:00,14.2,8.3,29.23,North,0,0.0,0.0,77,0.00,,,0.00,WUHU216WMR100,2013-02-07 07:00:00,
2013-02-07 02:05:00,14.2,8.3,29.21,North,0,0.0,0.0,77,0.00,,,0.00,WUHU216WMR100,2013-02-07 07:05:00,
2013-02-07 02:10:00,14.2,8.3,29.21,North,0,0.0,0.0,77,0.00,,,0.00,WUHU216WMR100,2013-02-07 07:10:00,
2013-02-07 02:15:00,14.4,8.5,29.21,North,0,0.0,0.0,77,0.00,,,0.00,WUHU216WMR100,2013-02-07 07:15:00,
2013-02-07 02:20:00,14.5,8.9,29.21,NNE,22,0.0,0.0,78,0.00,,,0.00,WUHU216WMR100,2013-02-07 07:20:00,
2013-02-07 02:25:00,14.9,9.3,29.21,NNE,22,0.0,0.0,78,0.00,,,0.00,WUHU216WMR100,2013-02-07 07:25:00,
2013-02-07 02:30:00,15.1,9.5,29.21,NNE,22,0.0,0.0,78,0.00,,,0.00,WUHU216WMR100,2013-02-07 07:30:00,
2013-02-07 02:35:00,14.9,9.3,29.21,NNE,22,0.0,1.1,78,0.00,,,0.00,WUHU216WMR100,2013-02-07 07:35:00,
2013-02-07 02:40:00,14.9,9.3,29.21,NNE,22,0.0,1.1,78,0.00,,,0.00,WUHU216WMR100,2013-02-07 07:40:00,
2013-02-07 02:45:00,15.3,9.7,29.21,NNE,22,0.0,0.0,78,0.00,,,0.00,WUHU216WMR100,2013-02-07 07:45:00,
2013-02-07 02:50:00,15.6,10.3,29.21,NNE,22,0.0,0.0,79,0.00,,,0.00,WUHU216WMR100,2013-02-07 07:50:00,
2013-02-07 02:55:00,15.8,10.4,29.21,NNE,22,0.0,0.0,79,0.00,,,0.00,WUHU216WMR100,2013-02-07 07:55:00,
2013-02-07 03:00:00,15.8,10.4,29.21,NNE,22,0.0,0.0,79,0.00,,,0.00,WUHU216WMR100,2013-02-07 08:00:00,
2013-02-07 03:05:00,15.8,10.4,29.21,NNE,22,0.0,0.0,79,0.00,,,0.00,WUHU216WMR100,2013-02-07 08:05:00,
2013-02-07 03:10:00,16.0,10.6,29.21,NNE,22,0.0,0.0,79,0.00,,,0.00,WUHU216WMR100,2013-02-07 08:10:00,
2013-02-07 03:15:00,16.2,10.8,29.21,NNW,337,0.9,2.0,79,0.00,,,0.00,WUHU216WMR100,2013-02-07 08:15:00,
2013-02-07 03:20:00,16.2,10.6,29.21,NNW,337,1.6,2.2,78,0.00,,,0.00,WUHU216WMR100,2013-02-07 08:20:00,
2013-02-07 03:26:00,16.5,11.1,29.21,North,0,0.0,2.5,79,0.00,,,0.00,WUHU216WMR100,2013-02-07 08:26:00,
2013-02-07 03:31:00,16.7,11.3,29.21,NNW,337,1.6,2.5,79,0.00,,,0.00,WUHU216WMR100,2013-02-07 08:31:00,
2013-02-07 03:36:00,16.9,11.5,29.23,NNW,337,1.1,2.5,79,0.00,,,0.00,WUHU216WMR100,2013-02-07 08:36:00,
2013-02-07 03:41:00,17.1,12.0,29.23,North,0,1.3,2.0,80,0.00,,,0.00,WUHU216WMR100,2013-02-07 08:41:00,
2013-02-07 03:47:00,17.1,12.0,29.23,NW,315,0.0,2.0,80,0.00,,,0.00,WUHU216WMR100,2013-02-07 08:47:00,
2013-02-07 03:52:00,16.9,11.8,29.21,NNW,337,0.0,2.0,80,0.00,,,0.00,WUHU216WMR100,2013-02-07 08:52:00,
2013-02-07 03:57:00,16.9,11.8,29.21,NNW,337,0.0,0.0,80,0.00,,,0.00,WUHU216WMR100,2013-02-07 08:57:00,
2013-02-07 04:02:00,17.1,12.0,29.21,North,0,0.0,0.0,80,0.00,,,0.00,WUHU216WMR100,2013-02-07 09:02:00,
2013-02-07 04:07:00,17.1,12.0,29.21,North,0,0.0,0.0,80,0.00,,,0.00,WUHU216WMR100,2013-02-07 09:07:00,
2013-02-07 04:12:00,17.2,12.1,29.21,NNW,337,0.0,0.0,80,0.00,,,0.00,WUHU216WMR100,2013-02-07 09:12:00,
2013-02-07 04:17:00,17.4,12.3,29.21,NNW,337,0.0,1.6,80,0.00,,,0.00,WUHU216WMR100,2013-02-07 09:17:00,
2013-02-07 04:22:00,17.6,12.5,29.21,North,0,0.0,1.6,80,0.00,,,0.00,WUHU216WMR100,2013-02-07 09:22:00,
2013-02-07 04:27:00,17.8,12.7,29.21,North,0,0.0,1.3,80,0.00,,,0.00,WUHU216WMR100,2013-02-07 09:27:00,
2013-02-07 04:32:00,18.0,12.9,29.21,North,0,0.0,2.0,80,0.00,,,0.00,WUHU216WMR100,2013-02-07 09:32:00,
2013-02-07 04:37:00,18.1,13.0,29.23,North,0,0.0,2.0,80,0.00,,,0.00,WUHU216WMR100,2013-02-07 09:37:00,
2013-02-07 04:42:00,18.3,13.2,29.23,North,0,0.0,0.0,80,0.00,,,0.00,WUHU216WMR100,2013-02-07 09:42:00,
2013-02-07 04:47:00,18.5,13.4,29.23,North,0,0.0,0.0,80,0.00,,,0.00,WUHU216WMR100,2013-02-07 09:47:00,
2013-02-07 04:52:00,18.7,13.6,29.21,North,0,0.0,0.0,80,0.00,,,0.00,WUHU216WMR100,2013-02-07 09:52:00,
2013-02-07 04:57:00,19.0,13.8,29.21,North,0,0.0,0.0,80,0.00,,,0.00,WUHU216WMR100,2013-02-07 09:57:00,
2013-02-07 05:02:00,19.2,14.0,29.21,North,0,0.0,0.0,80,0.00,,,0.00,WUHU216WMR100,2013-02-07 10:02:00,
2013-02-07 05:07:00,19.4,14.2,29.21,North,0,0.0,0.0,80,0.00,,,0.00,WUHU216WMR100,2013-02-07 10:07:00,
2013-02-07 05:12:00,19.6,14.4,29.21,NNE,22,0.0,0.0,80,0.00,,,0.00,WUHU216WMR100,2013-02-07 10:12:00,
2013-02-07 05:17:00,19.9,14.7,29.21,NNE,22,0.0,0.0,80,0.00,,,0.00,WUHU216WMR100,2013-02-07 10:17:00,
2013-02-07 05:22:00,20.1,14.9,29.21,NNE,22,0.0,0.0,80,0.00,,,0.00,WUHU216WMR100,2013-02-07 10:22:00,
2013-02-07 05:27:00,20.3,15.1,29.21,NNE,22,0.0,0.0,80,0.00,,,0.00,WUHU216WMR100,2013-02-07 10:27:00,
2013-02-07 05:32:00,20.3,14.8,29.21,NNE,22,0.0,0.0,79,0.00,,,0.00,WUHU216WMR100,2013-02-07 10:32:00,
2013-02-07 05:37:00,20.5,15.0,29.21,West,270,1.6,1.6,79,0.00,,,0.00,WUHU216WMR100,2013-02-07 10:37:00,
2013-02-07 05:42:00,20.5,15.0,29.21,WNW,292,1.1,2.0,79,0.00,,,0.00,WUHU216WMR100,2013-02-07 10:42:00,
2013-02-07 05:47:00,20.7,15.5,29.21,SSW,202,0.0,2.0,80,0.00,,,0.00,WUHU216WMR100,2013-02-07 10:47:00,
2013-02-07 05:52:00,20.8,15.6,29.21,SSE,157,2.0,2.7,80,0.00,,,0.00,WUHU216WMR100,2013-02-07 10:52:00,
2013-02-07 05:57:00,21.2,16.3,29.21,SSE,157,1.3,2.7,81,0.00,,,0.00,WUHU216WMR100,2013-02-07 10:57:00,
2013-02-07 06:02:00,21.4,16.5,29.21,SE,135,1.6,2.5,81,0.00,,,0.00,WUHU216WMR100,2013-02-07 11:02:00,
2013-02-07 06:07:00,21.6,16.7,29.21,ESE,112,1.1,2.5,81,0.00,,,0.00,WUHU216WMR100,2013-02-07 11:07:00,
2013-02-07 06:12:00,21.9,17.0,29.21,East,90,0.0,2.0,81,0.00,,,0.00,WUHU216WMR100,2013-02-07 11:12:00,
2013-02-07 06:17:00,22.1,17.2,29.21,East,90,0.0,1.6,81,0.00,,,0.00,WUHU216WMR100,2013-02-07 11:17:00,
2013-02-07 06:22:00,22.3,17.3,29.21,East,90,0.0,0.0,81,0.00,,,0.00,WUHU216WMR100,2013-02-07 11:22:00,
2013-02-07 06:27:00,22.5,17.5,29.21,East,90,0.0,0.0,81,0.00,,,0.00,WUHU216WMR100,2013-02-07 11:27:00,
2013-02-07 06:32:00,22.6,17.4,29.21,East,90,0.0,0.0,80,0.00,,,0.00,WUHU216WMR100,2013-02-07 11:32:00,
2013-02-07 06:37:00,22.8,17.6,29.18,NNE,22,0.0,0.0,80,0.00,,,0.00,WUHU216WMR100,2013-02-07 11:37:00,
2013-02-07 06:42:00,22.8,17.6,29.18,NNE,22,0.0,0.0,80,0.00,,,0.00,WUHU216WMR100,2013-02-07 11:42:00,
2013-02-07 06:47:00,23.0,17.8,29.18,SSE,157,0.0,0.0,80,0.00,,,0.00,WUHU216WMR100,2013-02-07 11:47:00,
2013-02-07 06:52:00,23.2,17.9,29.18,ESE,112,0.0,0.0,80,0.00,,,0.00,WUHU216WMR100,2013-02-07 11:52:00,
2013-02-07 06:57:00,23.4,18.1,29.18,SSE,157,0.0,0.0,80,0.00,,,0.00,WUHU216WMR100,2013-02-07 11:57:00,
2013-02-07 07:02:00,23.5,18.2,29.18,WSW,247,0.0,0.0,80,0.00,,,0.00,WUHU216WMR100,2013-02-07 12:02:00,
2013-02-07 07:07:00,23.7,18.4,29.21,SSW,202,0.0,0.0,80,0.00,,,0.00,WUHU216WMR100,2013-02-07 12:07:00,
2013-02-07 07:12:00,23.7,18.4,29.21,East,90,0.0,0.0,80,0.00,,,0.00,WUHU216WMR100,2013-02-07 12:12:00,
2013-02-07 07:17:00,23.9,18.3,29.21,NNE,22,0.0,0.0,79,0.00,,,0.00,WUHU216WMR100,2013-02-07 12:17:00,
2013-02-07 07:22:00,23.9,18.3,29.21,North,0,0.0,0.0,79,0.00,,,0.00,WUHU216WMR100,2013-02-07 12:22:00,
2013-02-07 07:27:00,24.1,18.5,29.21,North,0,2.0,3.4,79,0.00,,,0.00,WUHU216WMR100,2013-02-07 12:27:00,
2013-02-07 07:32:00,24.3,18.7,29.21,NNW,337,1.3,3.4,79,0.00,,,0.00,WUHU216WMR100,2013-02-07 12:32:00,
2013-02-07 07:37:00,24.3,18.7,29.21,North,0,0.9,2.2,79,0.00,,,0.00,WUHU216WMR100,2013-02-07 12:37:00,
2013-02-07 07:42:00,24.4,18.8,29.21,North,0,2.0,2.5,79,0.00,,,0.00,WUHU216WMR100,2013-02-07 12:42:00,
2013-02-07 07:47:00,24.6,19.0,29.21,WNW,292,1.3,3.1,79,0.00,,,0.00,WUHU216WMR100,2013-02-07 12:47:00,
2013-02-07 07:52:00,24.8,18.9,29.21,North,0,0.0,3.1,78,0.00,,,0.00,WUHU216WMR100,2013-02-07 12:52:00,
2013-02-07 07:57:00,25.2,19.3,29.21,North,0,0.0,2.2,78,0.00,,,0.00,WUHU216WMR100,2013-02-07 12:57:00,
2013-02-07 08:02:00,25.3,19.1,29.21,North,0,0.0,1.6,77,0.00,,,0.00,WUHU216WMR100,2013-02-07 13:02:00,
2013-02-07 08:07:00,25.9,19.7,29.21,North,0,0.0,0.0,77,0.00,,,0.00,WUHU216WMR100,2013-02-07 13:07:00,
2013-02-07 08:12:00,26.2,20.0,29.21,North,0,0.0,0.0,77,0.00,,,0.00,WUHU216WMR100,2013-02-07 13:12:00,
2013-02-07 08:17:00,26.8,20.3,29.21,North,0,0.0,0.0,76,0.00,,,0.00,WUHU216WMR100,2013-02-07 13:17:00,
2013-02-07 08:22:00,27.3,20.8,29.21,North,0,0.0,1.3,76,0.00,,,0.00,WUHU216WMR100,2013-02-07 13:22:00,
2013-02-07 08:27:00,27.7,20.8,29.21,ENE,67,1.1,2.7,75,0.00,,,0.00,WUHU216WMR100,2013-02-07 13:27:00,
2013-02-07 08:32:00,28.0,20.8,29.21,ENE,67,1.6,2.7,74,0.00,,,0.00,WUHU216WMR100,2013-02-07 13:32:00,
2013-02-07 08:37:00,28.2,19.4,29.21,ENE,67,2.7,3.8,69,0.00,,,0.00,WUHU216WMR100,2013-02-07 13:37:00,
2013-02-07 08:42:00,29.1,20.3,29.21,ENE,67,2.0,3.8,69,0.00,,,0.00,WUHU216WMR100,2013-02-07 13:42:00,
2013-02-07 08:47:00,29.8,20.9,29.21,ENE,67,2.5,2.9,69,0.00,,,0.00,WUHU216WMR100,2013-02-07 13:47:00,
2013-02-07 08:52:00,30.2,19.2,29.21,ENE,67,2.7,3.8,63,0.00,,,0.00,WUHU216WMR100,2013-02-07 13:52:00,
2013-02-07 08:57:00,30.6,18.0,29.21,East,90,3.1,4.0,59,0.00,,,0.00,WUHU216WMR100,2013-02-07 13:57:00,
2013-02-07 09:02:00,30.6,17.2,29.21,East,90,3.1,4.5,57,0.00,,,0.00,WUHU216WMR100,2013-02-07 14:02:00,
2013-02-07 09:07:00,30.6,16.8,29.18,NE,45,4.5,4.5,56,0.00,,,0.00,WUHU216WMR100,2013-02-07 14:07:00,
2013-02-07 09:12:00,31.1,17.2,29.18,ENE,67,2.2,5.4,56,0.00,,,0.00,WUHU216WMR100,2013-02-07 14:12:00,
2013-02-07 09:17:00,31.8,18.3,29.18,ESE,112,1.1,5.4,57,0.00,,,0.00,WUHU216WMR100,2013-02-07 14:17:00,
2013-02-07 09:22:00,31.8,17.5,29.18,ESE,112,3.4,4.7,55,0.00,,,0.00,WUHU216WMR100,2013-02-07 14:22:00,
2013-02-07 09:27:00,32.5,18.1,29.18,East,90,2.2,5.6,55,0.00,,,0.00,WUHU216WMR100,2013-02-07 14:27:00,
2013-02-07 09:32:00,33.1,18.7,29.18,SE,135,2.0,5.6,55,0.00,,,0.00,WUHU216WMR100,2013-02-07 14:32:00,
2013-02-07 09:37:00,33.1,17.8,29.18,SE,135,2.2,3.8,53,0.00,,,0.00,WUHU216WMR100,2013-02-07 14:37:00,
2013-02-07 09:42:00,33.3,18.0,29.18,East,90,1.6,4.3,53,0.00,,,0.00,WUHU216WMR100,2013-02-07 14:42:00,
2013-02-07 09:47:00,33.6,17.8,29.18,East,90,3.1,5.4,52,0.00,,,0.00,WUHU216WMR100,2013-02-07 14:47:00,
2013-02-07 09:52:00,35.1,20.1,29.21,ENE,67,0.0,5.4,54,0.00,,,0.00,WUHU216WMR100,2013-02-07 14:52:00,
2013-02-07 09:57:00,35.6,19.7,29.21,East,90,0.9,4.3,52,0.00,,,0.00,WUHU216WMR100,2013-02-07 14:57:00,
2013-02-07 10:02:00,35.8,18.9,29.21,ENE,67,3.4,5.4,50,0.00,,,0.00,WUHU216WMR100,2013-02-07 15:02:00,
2013-02-07 10:07:00,36.5,19.6,29.18,ESE,112,1.6,5.4,50,0.00,,,0.00,WUHU216WMR100,2013-02-07 15:07:00,
2013-02-07 10:12:00,36.7,18.8,29.18,NNE,22,3.1,6.5,48,0.00,,,0.00,WUHU216WMR100,2013-02-07 15:12:00,
2013-02-07 10:17:00,36.3,18.9,29.18,ENE,67,3.1,6.5,49,0.00,,,0.00,WUHU216WMR100,2013-02-07 15:17:00,
2013-02-07 10:22:00,36.1,18.7,29.18,East,90,3.1,6.5,49,0.00,,,0.00,WUHU216WMR100,2013-02-07 15:22:00,
2013-02-07 10:27:00,36.7,19.3,29.18,ENE,67,4.3,6.0,49,0.00,,,0.00,WUHU216WMR100,2013-02-07 15:27:00,
2013-02-07 10:32:00,37.6,19.1,29.18,East,90,4.5,6.0,47,0.00,,,0.00,WUHU216WMR100,2013-02-07 15:32:00,
2013-02-07 10:37:00,38.3,19.2,29.18,East,90,4.5,6.7,46,0.00,,,0.00,WUHU216WMR100,2013-02-07 15:37:00,
2013-02-07 10:42:00,38.7,19.0,29.18,ESE,112,3.4,6.7,45,0.00,,,0.00,WUHU216WMR100,2013-02-07 15:42:00,
2013-02-07 10:47:00,38.5,18.9,29.18,SSE,157,3.6,5.8,45,0.00,,,0.00,WUHU216WMR100,2013-02-07 15:47:00,
2013-02-07 10:52:00,38.1,19.0,29.18,SSE,157,2.9,4.9,46,0.00,,,0.00,WUHU216WMR100,2013-02-07 15:52:00,
2013-02-07 10:58:00,37.9,18.8,29.18,SSE,157,3.4,5.8,46,0.00,,,0.00,WUHU216WMR100,2013-02-07 15:58:00,
2013-02-07 11:03:00,37.6,18.6,29.18,SSE,157,4.5,5.8,46,0.00,,,0.00,WUHU216WMR100,2013-02-07 16:03:00,
2013-02-07 11:08:00,37.4,18.9,29.18,SE,135,2.2,5.8,47,0.00,,,0.00,WUHU216WMR100,2013-02-07 16:08:00,
2013-02-07 11:13:00,37.2,19.2,29.18,SSE,157,2.9,5.4,48,0.00,,,0.00,WUHU216WMR100,2013-02-07 16:13:00,
2013-02-07 11:18:00,37.4,19.4,29.18,ESE,112,2.7,5.4,48,0.00,,,0.00,WUHU216WMR100,2013-02-07 16:18:00,
2013-02-07 11:23:00,38.3,19.7,29.18,East,90,2.9,5.4,47,0.00,,,0.00,WUHU216WMR100,2013-02-07 16:23:00,
2013-02-07 11:28:00,39.6,20.4,29.18,SSE,157,2.7,5.4,46,0.00,,,0.00,WUHU216WMR100,2013-02-07 16:28:00,
2013-02-07 11:33:00,39.9,20.1,29.18,SSE,157,3.6,5.4,45,0.00,,,0.00,WUHU216WMR100,2013-02-07 16:33:00,
2013-02-07 11:38:00,40.8,20.4,29.18,SSE,157,2.7,4.7,44,0.00,,,0.00,WUHU216WMR100,2013-02-07 16:38:00,
2013-02-07 11:43:00,41.7,21.2,29.18,ENE,67,2.7,6.0,44,0.00,,,0.00,WUHU216WMR100,2013-02-07 16:43:00,
2013-02-07 11:48:00,40.8,19.9,29.18,SSE,157,2.9,6.0,43,0.00,,,0.00,WUHU216WMR100,2013-02-07 16:48:00,
2013-02-07 11:53:00,41.5,20.5,29.15,SE,135,2.7,5.6,43,0.00,,,0.00,WUHU216WMR100,2013-02-07 16:53:00,
2013-02-07 11:58:00,41.2,19.7,29.15,SE,135,5.4,5.6,42,0.00,,,0.00,WUHU216WMR100,2013-02-07 16:58:00,
2013-02-07 12:03:00,41.0,19.5,29.15,SSE,157,3.1,6.3,42,0.00,,,0.00,WUHU216WMR100,2013-02-07 17:03:00,
2013-02-07 12:08:00,41.5,19.9,29.15,SE,135,2.7,6.3,42,0.00,,,0.00,WUHU216WMR100,2013-02-07 17:08:00,
2013-02-07 12:13:00,42.3,20.1,29.15,SSE,157,3.6,5.4,41,0.00,,,0.00,WUHU216WMR100,2013-02-07 17:13:00,
2013-02-07 12:18:00,42.4,20.7,29.15,East,90,2.5,5.4,42,0.00,,,0.00,WUHU216WMR100,2013-02-07 17:18:00,
2013-02-07 12:23:00,43.2,20.9,29.15,ESE,112,2.5,5.4,41,0.00,,,0.00,WUHU216WMR100,2013-02-07 17:23:00,
2013-02-07 12:28:00,43.7,20.7,29.15,ESE,112,2.5,6.0,40,0.00,,,0.00,WUHU216WMR100,2013-02-07 17:28:00,
2013-02-07 12:33:00,43.0,20.1,29.15,SSE,157,3.1,6.0,40,0.00,,,0.00,WUHU216WMR100,2013-02-07 17:33:00,
2013-02-07 12:38:00,45.0,21.9,29.12,SE,135,2.7,4.7,40,0.00,,,0.00,WUHU216WMR100,2013-02-07 17:38:00,
2013-02-07 12:43:00,46.2,22.4,29.12,SSE,157,2.5,4.0,39,0.04,,,0.04,WUHU216WMR100,2013-02-07 17:43:00,
2013-02-07 12:49:00,45.9,21.5,29.12,SSE,157,2.9,4.0,38,0.04,,,0.04,WUHU216WMR100,2013-02-07 17:49:00,
2013-02-07 12:54:00,46.9,22.4,29.12,ESE,112,2.0,4.9,38,0.00,,,0.04,WUHU216WMR100,2013-02-07 17:54:00,
2013-02-07 13:01:00,48.6,23.3,29.12,SE,135,2.5,4.9,37,0.00,,,0.04,WUHU216WMR100,2013-02-07 18:01:00,
2013-02-07 13:06:00,50.2,24.7,29.09,ENE,67,2.5,4.0,37,0.00,,,0.04,WUHU216WMR100,2013-02-07 18:06:00,
2013-02-07 13:12:00,50.5,22.9,29.09,SSW,202,3.1,5.4,34,0.00,,,0.04,WUHU216WMR100,2013-02-07 18:12:00,
2013-02-07 13:17:00,51.3,22.2,29.09,SSW,202,3.6,5.6,32,0.00,,,0.04,WUHU216WMR100,2013-02-07 18:17:00,
2013-02-07 13:22:00,52.5,22.5,29.09,SSE,157,3.6,5.6,31,0.00,,,0.04,WUHU216WMR100,2013-02-07 18:22:00,
2013-02-07 13:27:00,54.0,23.0,29.09,SSE,157,3.8,6.3,30,0.00,,,0.04,WUHU216WMR100,2013-02-07 18:27:00,
2013-02-07 13:32:00,52.5,21.7,29.09,SSE,157,3.1,6.3,30,0.00,,,0.04,WUHU216WMR100,2013-02-07 18:32:00,
2013-02-07 13:37:00,51.8,21.1,29.09,ENE,67,3.8,5.8,30,0.00,,,0.04,WUHU216WMR100,2013-02-07 18:37:00,
2013-02-07 13:43:00,55.2,24.9,29.09,East,90,1.3,4.9,31,0.00,,,0.04,WUHU216WMR100,2013-02-07 18:43:00,
2013-02-07 13:48:00,54.1,22.3,29.09,SSE,157,2.7,5.6,29,0.00,,,0.04,WUHU216WMR100,2013-02-07 18:48:00,
2013-02-07 13:53:00,52.9,21.3,29.09,SSE,157,4.5,7.8,29,0.00,,,0.04,WUHU216WMR100,2013-02-07 18:53:00,
2013-02-07 13:58:00,53.8,22.1,29.09,SSW,202,3.1,7.8,29,0.00,,,0.04,WUHU216WMR100,2013-02-07 18:58:00,
2013-02-07 14:03:00,52.7,21.1,29.09,SSE,157,3.1,5.8,29,0.04,,,0.09,WUHU216WMR100,2013-02-07 19:03:00,
2013-02-07 14:08:00,53.8,22.1,29.06,SSE,157,3.4,5.6,29,0.04,,,0.09,WUHU216WMR100,2013-02-07 19:08:00,
2013-02-07 14:13:00,53.8,21.2,29.06,SSE,157,3.4,6.3,28,0.04,,,0.09,WUHU216WMR100,2013-02-07 19:13:00,
2013-02-07 14:18:00,53.1,21.4,29.06,SSE,157,4.5,6.3,29,0.04,,,0.09,WUHU216WMR100,2013-02-07 19:18:00,
2013-02-07 14:23:00,53.1,21.4,29.06,SE,135,3.4,5.6,29,0.04,,,0.09,WUHU216WMR100,2013-02-07 19:23:00,
2013-02-07 14:28:00,53.1,21.4,29.06,South,180,1.1,6.3,29,0.04,,,0.09,WUHU216WMR100,2013-02-07 19:28:00,
2013-02-07 14:33:00,54.5,22.7,29.06,SSE,157,2.2,6.3,29,0.04,,,0.09,WUHU216WMR100,2013-02-07 19:33:00,
2013-02-07 14:38:00,54.0,21.4,29.06,SSE,157,4.3,6.7,28,0.04,,,0.09,WUHU216WMR100,2013-02-07 19:38:00,
2013-02-07 14:43:00,54.5,22.7,29.06,SSE,157,2.2,6.7,29,0.08,,,0.12,WUHU216WMR100,2013-02-07 19:43:00,
2013-02-07 14:48:00,54.3,21.7,29.06,SSW,202,1.6,5.4,28,0.08,,,0.12,WUHU216WMR100,2013-02-07 19:48:00,
2013-02-07 14:53:00,54.1,21.5,29.03,South,180,3.6,5.8,28,0.00,,,0.12,WUHU216WMR100,2013-02-07 19:53:00,
2013-02-07 14:58:00,52.9,21.3,29.03,SSE,157,3.6,6.5,29,0.00,,,0.12,WUHU216WMR100,2013-02-07 19:58:00,
2013-02-07 15:03:00,53.1,21.4,29.03,SSE,157,3.4,6.5,29,0.00,,,0.12,WUHU216WMR100,2013-02-07 20:03:00,
2013-02-07 15:08:00,52.3,20.8,29.03,SSW,202,4.0,5.8,29,0.00,,,0.12,WUHU216WMR100,2013-02-07 20:08:00,
2013-02-07 15:13:00,52.2,20.7,29.03,SSE,157,2.2,5.8,29,0.00,,,0.12,WUHU216WMR100,2013-02-07 20:13:00,
2013-02-07 15:18:00,52.0,20.5,29.03,SSE,157,3.8,4.3,29,0.00,,,0.12,WUHU216WMR100,2013-02-07 20:18:00,
2013-02-07 15:23:00,51.8,20.3,29.03,SSE,157,3.1,4.3,29,0.00,,,0.12,WUHU216WMR100,2013-02-07 20:23:00,
2013-02-07 15:28:00,51.8,21.1,29.03,SSE,157,2.9,4.0,30,0.00,,,0.12,WUHU216WMR100,2013-02-07 20:28:00,
2013-02-07 15:33:00,51.4,20.8,29.03,SSW,202,3.1,4.0,30,0.00,,,0.12,WUHU216WMR100,2013-02-07 20:33:00,
2013-02-07 15:38:00,51.4,21.5,29.03,SSE,157,2.7,4.3,31,0.00,,,0.12,WUHU216WMR100,2013-02-07 20:38:00,
2013-02-07 15:43:00,50.9,21.1,29.03,SSE,157,2.5,5.4,31,0.00,,,0.12,WUHU216WMR100,2013-02-07 20:43:00,
2013-02-07 15:48:00,50.5,20.7,29.03,SSW,202,3.1,6.5,31,0.00,,,0.12,WUHU216WMR100,2013-02-07 20:48:00,
2013-02-07 15:53:00,50.5,21.5,29.03,ESE,112,2.7,6.5,32,0.00,,,0.12,WUHU216WMR100,2013-02-07 20:53:00,
2013-02-07 15:58:00,50.4,20.7,29.03,SSE,157,2.9,5.8,31,0.00,,,0.12,WUHU216WMR100,2013-02-07 20:58:00,
2013-02-07 16:03:00,49.8,20.9,29.03,SSE,157,3.6,5.8,32,0.00,,,0.12,WUHU216WMR100,2013-02-07 21:03:00,
2013-02-07 16:08:00,49.6,21.4,29.03,SSE,157,2.7,5.8,33,0.00,,,0.12,WUHU216WMR100,2013-02-07 21:08:00,
2013-02-07 16:13:00,49.5,21.3,29.03,SSE,157,3.1,5.6,33,0.00,,,0.12,WUHU216WMR100,2013-02-07 21:13:00,
2013-02-07 16:18:00,49.1,21.0,29.03,East,90,3.4,4.9,33,0.00,,,0.12,WUHU216WMR100,2013-02-07 21:18:00,
2013-02-07 16:23:00,48.7,20.6,29.03,SE,135,2.9,4.9,33,0.00,,,0.12,WUHU216WMR100,2013-02-07 21:23:00,
2013-02-07 16:28:00,48.6,21.2,29.03,ESE,112,2.0,4.7,34,0.00,,,0.12,WUHU216WMR100,2013-02-07 21:28:00,
2013-02-07 16:33:00,48.0,21.4,29.03,SSE,157,2.7,3.8,35,0.00,,,0.12,WUHU216WMR100,2013-02-07 21:33:00,
2013-02-07 16:38:00,47.5,21.6,29.00,SSE,157,3.6,5.8,36,0.00,,,0.12,WUHU216WMR100,2013-02-07 21:38:00,
2013-02-07 16:43:00,46.9,21.8,29.00,SSE,157,4.3,5.8,37,0.00,,,0.12,WUHU216WMR100,2013-02-07 21:43:00,
2013-02-07 16:48:00,46.8,21.7,29.00,ESE,112,2.9,6.3,37,0.00,,,0.12,WUHU216WMR100,2013-02-07 21:48:00,
2013-02-07 16:53:00,46.6,21.5,29.00,SSE,157,2.5,6.3,37,0.00,,,0.12,WUHU216WMR100,2013-02-07 21:53:00,
2013-02-07 16:58:00,46.2,21.8,29.00,SSE,157,2.2,6.3,38,0.00,,,0.12,WUHU216WMR100,2013-02-07 21:58:00,
2013-02-07 17:03:00,45.9,22.1,29.00,SSE,157,2.7,3.8,39,0.04,,,0.17,WUHU216WMR100,2013-02-07 22:03:00,
2013-02-07 17:08:00,45.7,21.9,29.00,SSE,157,2.7,3.8,39,0.04,,,0.17,WUHU216WMR100,2013-02-07 22:08:00,
2013-02-07 17:13:00,45.5,21.8,29.00,SSE,157,1.6,4.9,39,0.04,,,0.17,WUHU216WMR100,2013-02-07 22:13:00,
2013-02-07 17:18:00,45.3,21.6,29.00,ESE,112,2.0,4.9,39,0.04,,,0.17,WUHU216WMR100,2013-02-07 22:18:00,
2013-02-07 17:23:00,45.0,21.3,29.00,ESE,112,2.2,4.7,39,0.04,,,0.17,WUHU216WMR100,2013-02-07 22:23:00,
2013-02-07 17:28:00,44.4,21.4,29.00,ESE,112,1.6,3.4,40,0.04,,,0.17,WUHU216WMR100,2013-02-07 22:28:00,
2013-02-07 17:33:00,44.1,21.1,29.00,SSE,157,2.0,3.1,40,0.04,,,0.17,WUHU216WMR100,2013-02-07 22:33:00,
2013-02-07 17:38:00,43.5,21.2,28.97,SSE,157,1.1,3.1,41,0.04,,,0.17,WUHU216WMR100,2013-02-07 22:38:00,
2013-02-07 17:43:00,42.6,20.3,28.97,ESE,112,0.0,2.0,41,0.04,,,0.17,WUHU216WMR100,2013-02-07 22:43:00,
2013-02-07 17:48:00,42.3,20.7,28.97,ESE,112,0.0,2.5,42,0.04,,,0.17,WUHU216WMR100,2013-02-07 22:48:00,
2013-02-07 17:53:00,41.9,20.3,29.00,ESE,112,0.0,2.5,42,0.00,,,0.17,WUHU216WMR100,2013-02-07 22:53:00,
2013-02-07 17:58:00,41.9,21.4,29.00,SE,135,2.7,4.9,44,0.00,,,0.17,WUHU216WMR100,2013-02-07 22:58:00,
2013-02-07 18:03:00,41.9,22.0,29.00,SE,135,3.6,4.9,45,0.00,,,0.17,WUHU216WMR100,2013-02-07 23:03:00,
2013-02-07 18:08:00,41.5,21.6,29.00,ESE,112,2.0,4.7,45,0.00,,,0.17,WUHU216WMR100,2013-02-07 23:08:00,
2013-02-07 18:13:00,41.2,21.9,29.00,SSE,157,2.0,3.8,46,0.00,,,0.17,WUHU216WMR100,2013-02-07 23:13:00,
2013-02-07 18:18:00,41.2,21.9,29.00,SE,135,1.6,3.8,46,0.00,,,0.17,WUHU216WMR100,2013-02-07 23:18:00,
2013-02-07 18:23:00,41.0,22.2,29.00,SSE,157,2.2,4.0,47,0.00,,,0.17,WUHU216WMR100,2013-02-07 23:23:00,
2013-02-07 18:28:00,41.0,22.2,29.00,SSE,157,2.2,4.7,47,0.00,,,0.17,WUHU216WMR100,2013-02-07 23:28:00,
2013-02-07 18:33:00,40.8,22.5,29.00,ESE,112,3.1,4.7,48,0.00,,,0.17,WUHU216WMR100,2013-02-07 23:33:00,
2013-02-07 18:38:00,40.8,23.0,29.00,SSE,157,3.1,4.9,49,0.00,,,0.17,WUHU216WMR100,2013-02-07 23:38:00,
2013-02-07 18:43:00,40.6,22.9,29.00,ESE,112,2.9,4.9,49,0.00,,,0.17,WUHU216WMR100,2013-02-07 23:43:00,
2013-02-07 18:48:00,40.6,22.9,29.00,SSE,157,3.6,4.7,49,0.00,,,0.17,WUHU216WMR100,2013-02-07 23:48:00,
2013-02-07 18:53:00,40.5,22.8,29.00,SSE,157,2.2,4.7,49,0.00,,,0.17,WUHU216WMR100,2013-02-07 23:53:00,
2013-02-07 18:58:00,40.5,22.8,29.00,SSE,157,2.2,4.3,49,0.00,,,0.17,WUHU216WMR100,2013-02-07 23:58:00,
2013-02-07 19:03:00,40.3,23.1,29.00,SE,135,3.1,4.3,50,0.00,,,0.17,WUHU216WMR100,2013-02-08 00:03:00,
2013-02-07 19:08:00,40.3,23.1,28.97,SE,135,2.2,4.9,50,0.00,,,0.17,WUHU216WMR100,2013-02-08 00:08:00,
2013-02-07 19:13:00,39.9,22.7,28.97,ESE,112,1.6,4.9,50,0.00,,,0.17,WUHU216WMR100,2013-02-08 00:13:00,
2013-02-07 19:18:00,39.7,22.5,28.97,SSE,157,2.5,3.4,50,0.00,,,0.17,WUHU216WMR100,2013-02-08 00:18:00,
2013-02-07 19:23:00,39.4,22.2,28.97,SSW,202,0.0,3.4,50,0.00,,,0.17,WUHU216WMR100,2013-02-08 00:23:00,
2013-02-07 19:28:00,39.4,22.7,28.97,SSE,157,2.0,3.4,51,0.00,,,0.17,WUHU216WMR100,2013-02-08 00:28:00,
2013-02-07 19:33:00,39.2,22.5,28.97,ESE,112,2.2,3.4,51,0.00,,,0.17,WUHU216WMR100,2013-02-08 00:33:00,
2013-02-07 19:38:00,39.0,22.8,28.97,SSE,157,2.5,3.4,52,0.00,,,0.17,WUHU216WMR100,2013-02-08 00:38:00,
2013-02-07 19:43:00,38.8,22.6,28.97,SSE,157,1.6,3.1,52,0.00,,,0.17,WUHU216WMR100,2013-02-08 00:43:00,
2013-02-07 19:48:00,38.7,22.6,28.97,SE,135,2.0,2.7,52,0.00,,,0.17,WUHU216WMR100,2013-02-08 00:48:00,
2013-02-07 19:53:00,38.5,22.8,28.97,SE,135,1.3,2.9,53,0.00,,,0.17,WUHU216WMR100,2013-02-08 00:53:00,
2013-02-07 19:58:00,38.1,22.0,28.97,ESE,112,0.0,2.9,52,0.00,,,0.17,WUHU216WMR100,2013-02-08 00:58:00,
2013-02-07 20:03:00,37.8,21.7,28.97,ESE,112,0.0,2.5,52,0.00,,,0.17,WUHU216WMR100,2013-02-08 01:03:00,
2013-02-07 20:08:00,37.4,21.8,28.97,ESE,112,1.1,2.5,53,0.00,,,0.17,WUHU216WMR100,2013-02-08 01:08:00,
2013-02-07 20:13:00,37.0,21.9,28.97,SE,135,0.0,2.0,54,0.00,,,0.17,WUHU216WMR100,2013-02-08 01:13:00,
2013-02-07 20:18:00,36.9,21.8,28.97,ESE,112,0.0,2.0,54,0.00,,,0.17,WUHU216WMR100,2013-02-08 01:18:00,
2013-02-07 20:23:00,36.3,21.7,28.97,ESE,112,0.0,2.5,55,0.00,,,0.17,WUHU216WMR100,2013-02-08 01:23:00,
2013-02-07 20:28:00,36.1,21.5,28.97,ESE,112,0.0,2.5,55,0.00,,,0.17,WUHU216WMR100,2013-02-08 01:28:00,
2013-02-07 20:33:00,35.8,21.2,28.97,ESE,112,0.0,0.9,55,0.00,,,0.17,WUHU216WMR100,2013-02-08 01:33:00,
2013-02-07 20:38:00,35.4,21.3,28.94,ESE,112,0.0,1.1,56,0.00,,,0.17,WUHU216WMR100,2013-02-08 01:38:00,
2013-02-07 20:43:00,35.4,21.7,28.94,ESE,112,0.0,1.1,57,0.00,,,0.17,WUHU216WMR100,2013-02-08 01:43:00,
2013-02-07 20:48:00,35.2,21.5,28.94,ESE,112,0.0,0.0,57,0.00,,,0.17,WUHU216WMR100,2013-02-08 01:48:00,
2013-02-07 20:53:00,34.7,21.0,28.94,ESE,112,0.0,0.0,57,0.00,,,0.17,WUHU216WMR100,2013-02-08 01:53:00,
2013-02-07 20:58:00,34.5,21.3,28.94,ESE,112,0.0,0.0,58,0.00,,,0.17,WUHU216WMR100,2013-02-08 01:58:00,
2013-02-07 21:03:00,34.3,21.1,28.94,ESE,112,0.0,0.0,58,0.00,,,0.17,WUHU216WMR100,2013-02-08 02:03:00,
2013-02-07 21:08:00,34.3,21.1,28.94,ESE,112,0.0,0.0,58,0.00,,,0.17,WUHU216WMR100,2013-02-08 02:08:00,
2013-02-07 21:13:00,34.9,22.5,28.94,ESE,112,1.6,2.2,60,0.00,,,0.17,WUHU216WMR100,2013-02-08 02:13:00,
2013-02-07 21:18:00,35.2,24.3,28.94,SSE,157,2.2,2.7,64,0.00,,,0.17,WUHU216WMR100,2013-02-08 02:18:00,
2013-02-07 21:23:00,35.6,25.1,28.94,SSE,157,2.0,2.9,65,0.00,,,0.17,WUHU216WMR100,2013-02-08 02:23:00,
2013-02-07 21:28:00,35.8,24.9,28.94,SSE,157,2.5,3.4,64,0.00,,,0.17,WUHU216WMR100,2013-02-08 02:28:00,
2013-02-07 21:33:00,36.1,25.2,28.94,SSE,157,2.7,3.6,64,0.00,,,0.17,WUHU216WMR100,2013-02-08 02:33:00,
2013-02-07 21:38:00,36.5,25.2,28.91,SSE,157,2.9,3.6,63,0.00,,,0.17,WUHU216WMR100,2013-02-08 02:38:00,
2013-02-07 21:43:00,36.7,25.4,28.91,SSE,157,3.1,4.3,63,0.00,,,0.17,WUHU216WMR100,2013-02-08 02:43:00,
2013-02-07 21:48:00,36.7,25.0,28.91,SSE,157,2.7,4.3,62,0.00,,,0.17,WUHU216WMR100,2013-02-08 02:48:00,
2013-02-07 21:53:00,36.7,24.6,28.91,SSE,157,1.6,3.6,61,0.00,,,0.17,WUHU216WMR100,2013-02-08 02:53:00,
2013-02-07 21:58:00,36.9,24.8,28.91,SE,135,2.0,3.8,61,0.00,,,0.17,WUHU216WMR100,2013-02-08 02:58:00,
2013-02-07 22:06:00,36.7,24.6,28.91,SSE,157,2.0,4.0,61,0.00,,,0.17,WUHU216WMR100,2013-02-08 03:06:00,
2013-02-07 22:11:00,36.9,24.8,28.91,ESE,112,2.2,3.6,61,0.00,,,0.17,WUHU216WMR100,2013-02-08 03:11:00,
2013-02-07 22:16:00,36.9,25.2,28.91,SSW,202,2.7,4.0,62,0.00,,,0.17,WUHU216WMR100,2013-02-08 03:16:00,
2013-02-07 22:21:00,36.9,25.2,28.91,ESE,112,2.7,4.0,62,0.00,,,0.17,WUHU216WMR100,2013-02-08 03:21:00,
2013-02-07 22:26:00,36.9,25.2,28.91,SSE,157,2.7,3.6,62,0.00,,,0.17,WUHU216WMR100,2013-02-08 03:26:00,
2013-02-07 22:31:00,36.7,24.6,28.91,SSE,157,2.2,3.6,61,0.00,,,0.17,WUHU216WMR100,2013-02-08 03:31:00,
2013-02-07 22:36:00,36.7,25.0,28.91,ESE,112,2.5,3.8,62,0.00,,,0.17,WUHU216WMR100,2013-02-08 03:36:00,
2013-02-07 22:41:00,36.7,25.0,28.91,SSE,157,2.9,3.8,62,0.00,,,0.17,WUHU216WMR100,2013-02-08 03:41:00,
2013-02-07 22:46:00,36.7,25.4,28.91,SSE,157,2.5,3.8,63,0.00,,,0.17,WUHU216WMR100,2013-02-08 03:46:00,
2013-02-07 22:51:00,36.7,25.4,28.91,SSE,157,2.7,4.7,63,0.00,,,0.17,WUHU216WMR100,2013-02-08 03:51:00,
2013-02-07 22:56:00,36.7,25.7,28.91,SSE,157,2.7,4.7,64,0.00,,,0.17,WUHU216WMR100,2013-02-08 03:56:00,
2013-02-07 23:01:00,36.7,25.7,28.91,SE,135,3.4,4.7,64,0.00,,,0.17,WUHU216WMR100,2013-02-08 04:01:00,
2013-02-07 23:06:00,36.7,25.7,28.88,SSE,157,3.8,4.7,64,0.00,,,0.17,WUHU216WMR100,2013-02-08 04:06:00,
2013-02-07 23:11:00,36.7,25.7,28.88,SSE,157,3.6,4.7,64,0.00,,,0.17,WUHU216WMR100,2013-02-08 04:11:00,
2013-02-07 23:16:00,36.7,25.7,28.88,ESE,112,2.7,4.9,64,0.00,,,0.17,WUHU216WMR100,2013-02-08 04:16:00,
2013-02-07 23:21:00,36.7,26.1,28.88,SSE,157,3.1,4.9,65,0.00,,,0.17,WUHU216WMR100,2013-02-08 04:21:00,
2013-02-07 23:26:00,36.7,26.1,28.88,SSE,157,3.1,4.0,65,0.00,,,0.17,WUHU216WMR100,2013-02-08 04:26:00,
2013-02-07 23:31:00,36.5,25.9,28.88,SSE,157,3.6,4.0,65,0.00,,,0.17,WUHU216WMR100,2013-02-08 04:31:00,
2013-02-07 23:37:00,36.5,25.9,28.88,ESE,112,3.6,4.0,65,0.00,,,0.17,WUHU216WMR100,2013-02-08 04:37:00,
2013-02-07 23:42:00,36.3,26.1,28.88,SE,135,3.1,4.0,66,0.00,,,0.17,WUHU216WMR100,2013-02-08 04:42:00,
2013-02-07 23:47:00,36.1,25.9,28.88,SSE,157,2.7,4.0,66,0.00,,,0.17,WUHU216WMR100,2013-02-08 04:47:00,
2013-02-07 23:52:00,36.1,25.9,28.88,SSE,157,2.9,3.8,66,0.00,,,0.17,WUHU216WMR100,2013-02-08 04:52:00,
2013-02-07 23:57:00,36.1,26.3,28.88,SSE,157,3.1,4.9,67,0.00,,,0.17,WUHU216WMR100,2013-02-08 04:57:00,